| time (UTC) | temp F | wind direction | speed knots | gust knots | rain 1hr in | rain 24hr in | rain mn in | humidity % | barometer mb |
| 20260507182703 | 64 | 41 | 0.9 | 4.3 | 0.00 | 0.00 | 0.00 | 22 | 1017.9 |
| 20260507181803 | 64 | 10 | 1.7 | 7.0 | 0.00 | 0.00 | 0.00 | 22 | 1017.9 |
| 20260507180903 | 64 | 12 | 1.7 | 7.0 | 0.00 | 0.00 | 0.00 | 22 | 1017.9 |
| 20260507180015 | 64 | 28 | 1.7 | 7.8 | 0.00 | 0.00 | 0.00 | 23 | 1017.9 |
| 20260507175424 | 63 | 31 | 0.9 | 7.0 | 0.00 | 0.00 | 0.00 | 22 | 1017.9 |
| 20260507174515 | 63 | 44 | 1.7 | 7.8 | 0.00 | 0.00 | 0.00 | 22 | 1017.9 |
| 20260507173615 | 62 | 27 | 0.9 | 7.0 | 0.00 | 0.00 | 0.00 | 22 | 1017.9 |
| 20260507172715 | 62 | 27 | 0.9 | 7.0 | 0.00 | 0.00 | 0.00 | 23 | 1017.9 |
| 20260507171815 | 61 | 328 | 0.0 | 4.3 | 0.00 | 0.00 | 0.00 | 23 | 1017.9 |
| 20260507170915 | 60 | 348 | 0.9 | 4.3 | 0.00 | 0.00 | 0.00 | 23 | 1017.9 |
| 20260507170015 | 58 | 175 | 0.0 | 3.5 | 0.00 | 0.00 | 0.00 | 26 | 1017.9 |
| 20260507165415 | 58 | 104 | 0.9 | 4.3 | 0.00 | 0.00 | 0.00 | 27 | 1017.9 |
| 20260507164503 | 58 | 61 | 0.0 | 3.5 | 0.00 | 0.00 | 0.00 | 26 | 1017.9 |
| 20260507163636 | 58 | 61 | 0.0 | 3.5 | 0.00 | 0.00 | 0.00 | 29 | 1017.9 |
| 20260507162703 | 58 | 56 | 1.7 | 7.0 | 0.00 | 0.00 | 0.00 | 27 | 1017.9 |
| 20260507161803 | 57 | 62 | 0.9 | 5.2 | 0.00 | 0.00 | 0.00 | 29 | 1017.9 |
| 20260507160915 | 56 | 68 | 0.9 | 5.2 | 0.00 | 0.00 | 0.00 | 30 | 1017.9 |
| 20260507160036 | 56 | 37 | 0.0 | 6.1 | 0.00 | 0.00 | 0.00 | 30 | 1017.9 |
| 20260507155415 | 55 | 55 | 0.9 | 7.0 | 0.00 | 0.00 | 0.00 | 31 | 1017.9 |
| 20260507154515 | 54 | 59 | 1.7 | 8.7 | 0.00 | 0.00 | 0.00 | 32 | 1017.9 |
| 20260507153615 | 52 | 151 | 2.6 | 10.4 | 0.00 | 0.00 | 0.00 | 35 | 1017.9 |
| 20260507152736 | 50 | 201 | 4.3 | 10.4 | 0.00 | 0.00 | 0.00 | 36 | 1017.9 |
| 20260507151803 | 50 | 210 | 3.5 | 10.4 | 0.00 | 0.00 | 0.00 | 38 | 1017.9 |
| 20260507150915 | 50 | 207 | 2.6 | 9.6 | 0.00 | 0.00 | 0.00 | 38 | 1017.9 |
| 20260507150015 | 50 | 52 | 0.9 | 8.7 | 0.00 | 0.00 | 0.00 | 39 | 1017.9 |
| 20260507145415 | 50 | 76 | 0.0 | 4.3 | 0.00 | 0.00 | 0.00 | 39 | 1017.9 |
| 20260507144503 | 49 | 149 | 0.9 | 7.0 | 0.00 | 0.00 | 0.00 | 40 | 1017.9 |
| 20260507143615 | 49 | 49 | 0.0 | 5.2 | 0.00 | 0.00 | 0.00 | 40 | 1017.9 |
| 20260507142715 | 48 | 43 | 0.0 | 2.6 | 0.00 | 0.00 | 0.00 | 42 | 1017.9 |
| 20260507141815 | 48 | 43 | 0.0 | 2.6 | 0.00 | 0.00 | 0.00 | 41 | 1017.9 |
| 20260507140936 | 47 | 44 | 0.0 | 2.6 | 0.00 | 0.00 | 0.00 | 43 | 1017.9 |
| 20260507140003 | 46 | 50 | 0.0 | 4.3 | 0.00 | 0.00 | 0.00 | 44 | 1017.9 |
| 20260507135415 | 46 | 58 | 0.0 | 4.3 | 0.00 | 0.00 | 0.00 | 45 | 1017.9 |
| 20260507134524 | 45 | 55 | 0.9 | 6.1 | 0.00 | 0.00 | 0.00 | 45 | 1017.9 |
| 20260507133615 | 45 | 57 | 0.9 | 4.3 | 0.00 | 0.00 | 0.00 | 45 | 1017.9 |
| 20260507132715 | 45 | 63 | 0.9 | 3.5 | 0.00 | 0.00 | 0.00 | 45 | 1017.9 |
| 20260507131815 | 44 | 225 | 0.0 | 4.3 | 0.00 | 0.00 | 0.00 | 45 | 1017.9 |
| 20260507130903 | 44 | 229 | 0.9 | 7.8 | 0.00 | 0.00 | 0.00 | 44 | 1017.9 |
| 20260507130015 | 43 | 212 | 1.7 | 6.1 | 0.00 | 0.00 | 0.00 | 44 | 1017.9 |
| 20260507125403 | 43 | 203 | 1.7 | 6.1 | 0.00 | 0.01 | 0.00 | 45 | 1017.9 |
| 20260507124515 | 42 | 189 | 2.6 | 11.3 | 0.00 | 0.01 | 0.00 | 47 | 1017.9 |
| 20260507123603 | 40 | 194 | 3.5 | 7.0 | 0.00 | 0.01 | 0.00 | 50 | 1017.9 |
| 20260507122715 | 39 | 218 | 2.6 | 7.0 | 0.00 | 0.02 | 0.00 | 53 | 1017.9 |
| 20260507121803 | 38 | 253 | 0.9 | 4.3 | 0.00 | 0.04 | 0.00 | 55 | 1017.9 |
| 20260507120915 | 38 | 255 | 0.0 | 4.3 | 0.00 | 0.05 | 0.00 | 54 | 1017.9 |
| 20260507120015 | 38 | 0 | 0.0 | 0.0 | 0.00 | 0.05 | 0.00 | 53 | 1017.9 |
| 20260507115424 | 39 | 0 | 0.0 | 0.0 | 0.00 | 0.06 | 0.00 | 52 | 1017.9 |
| 20260507114503 | 39 | 0 | 0.0 | 0.0 | 0.00 | 0.06 | 0.00 | 53 | 1017.9 |
| 20260507113615 | 39 | 0 | 0.0 | 0.0 | 0.00 | 0.06 | 0.00 | 53 | 1017.9 |
| 20260507112715 | 39 | 0 | 0.0 | 0.0 | 0.00 | 0.06 | 0.00 | 52 | 1017.9 |
| 20260507111815 | 39 | 256 | 0.0 | 0.9 | 0.00 | 0.06 | 0.00 | 51 | 1017.9 |
| 20260507110936 | 39 | 0 | 0.0 | 0.0 | 0.00 | 0.06 | 0.00 | 50 | 1017.9 |
| 20260507110015 | 38 | 0 | 0.0 | 0.0 | 0.00 | 0.06 | 0.00 | 50 | 1017.9 |
| 20260507105415 | 39 | 0 | 0.0 | 0.0 | 0.00 | 0.06 | 0.00 | 50 | 1017.9 |
| 20260507104515 | 38 | 0 | 0.0 | 0.0 | 0.00 | 0.06 | 0.00 | 50 | 1017.9 |
| 20260507103636 | 39 | 0 | 0.0 | 0.0 | 0.00 | 0.06 | 0.00 | 49 | 1017.9 |
| 20260507102715 | 39 | 0 | 0.0 | 0.0 | 0.00 | 0.06 | 0.00 | 48 | 1017.9 |
| 20260507101815 | 40 | 0 | 0.0 | 0.0 | 0.00 | 0.06 | 0.00 | 48 | 1017.9 |
| 20260507100915 | 40 | 0 | 0.0 | 0.0 | 0.00 | 0.06 | 0.00 | 48 | 1017.9 |
| 20260507100015 | 39 | 0 | 0.0 | 0.0 | 0.00 | 0.06 | 0.00 | 49 | 1017.9 |
| 20260507095424 | 39 | 0 | 0.0 | 0.0 | 0.00 | 0.06 | 0.00 | 49 | 1017.9 |
| 20260507094515 | 39 | 0 | 0.0 | 0.0 | 0.00 | 0.06 | 0.00 | 48 | 1017.9 |
| 20260507093615 | 40 | 0 | 0.0 | 0.0 | 0.00 | 0.06 | 0.00 | 47 | 1017.9 |
| 20260507092703 | 40 | 0 | 0.0 | 0.0 | 0.00 | 0.06 | 0.00 | 46 | 1017.9 |
| 20260507091803 | 41 | 0 | 0.0 | 0.0 | 0.00 | 0.06 | 0.00 | 44 | 1017.9 |
| 20260507090915 | 41 | 0 | 0.0 | 0.0 | 0.00 | 0.06 | 0.00 | 44 | 1017.9 |
| 20260507090015 | 42 | 0 | 0.0 | 0.0 | 0.00 | 0.06 | 0.00 | 45 | 1017.9 |
| 20260507085403 | 41 | 0 | 0.0 | 0.0 | 0.00 | 0.06 | 0.00 | 45 | 1017.9 |
| 20260507084524 | 40 | 0 | 0.0 | 0.0 | 0.00 | 0.06 | 0.00 | 46 | 1017.9 |
| 20260507083615 | 40 | 0 | 0.0 | 0.0 | 0.00 | 0.06 | 0.00 | 46 | 1017.9 |
| 20260507082724 | 41 | 0 | 0.0 | 0.0 | 0.00 | 0.06 | 0.00 | 46 | 1017.9 |
| 20260507081815 | 41 | 0 | 0.0 | 0.0 | 0.00 | 0.06 | 0.00 | 47 | 1017.9 |
| 20260507080915 | 41 | 0 | 0.0 | 0.0 | 0.00 | 0.06 | 0.00 | 47 | 1017.9 |
| 20260507080024 | 40 | 0 | 0.0 | 0.0 | 0.00 | 0.06 | 0.00 | 48 | 1017.9 |
| 20260507075403 | 40 | 0 | 0.0 | 0.0 | 0.00 | 0.06 | 0.00 | 47 | 1017.9 |
| 20260507074515 | 41 | 0 | 0.0 | 0.0 | 0.00 | 0.06 | 0.00 | 47 | 1017.9 |
| 20260507073615 | 41 | 0 | 0.0 | 0.0 | 0.00 | 0.06 | 0.00 | 45 | 1017.9 |
| 20260507072715 | 42 | 0 | 0.0 | 0.0 | 0.00 | 0.06 | 0.00 | 43 | 1017.9 |
| 20260507071815 | 43 | 0 | 0.0 | 0.0 | 0.00 | 0.06 | 0.00 | 43 | 1017.9 |
| 20260507070903 | 44 | 0 | 0.0 | 0.0 | 0.00 | 0.06 | 0.00 | 40 | 1017.9 |
| 20260507070015 | 45 | 0 | 0.0 | 0.0 | 0.00 | 0.06 | 0.00 | 38 | 1017.9 |
| 20260507065415 | 46 | 0 | 0.0 | 0.0 | 0.00 | 0.06 | 0.00 | 35 | 1017.9 |
| 20260507064503 | 48 | 0 | 0.0 | 0.0 | 0.00 | 0.06 | 0.00 | 33 | 1017.9 |
| 20260507063615 | 49 | 0 | 0.0 | 0.0 | 0.00 | 0.06 | 0.00 | 31 | 1017.9 |
| 20260507062715 | 50 | 238 | 0.0 | 3.5 | 0.00 | 0.06 | 0.00 | 27 | 1017.9 |
| 20260507061815 | 50 | 195 | 0.0 | 6.1 | 0.00 | 0.06 | 0.00 | 27 | 1017.9 |
| 20260507060903 | 51 | 188 | 0.0 | 3.5 | 0.00 | 0.06 | 0.00 | 26 | 1017.9 |
| 20260507060015 | 51 | 187 | 0.0 | 0.9 | 0.00 | 0.06 | 0.00 | 26 | 1017.9 |
| 20260507055403 | 51 | 187 | 0.0 | 4.3 | 0.00 | 0.06 | 0.06 | 26 | 1017.9 |
| 20260507054503 | 51 | 188 | 1.7 | 5.2 | 0.00 | 0.06 | 0.06 | 26 | 1017.9 |
| 20260507053615 | 51 | 189 | 1.7 | 5.2 | 0.00 | 0.06 | 0.06 | 26 | 1017.9 |
| 20260507052715 | 50 | 206 | 1.7 | 6.1 | 0.00 | 0.06 | 0.06 | 27 | 1017.9 |
| 20260507051815 | 50 | 214 | 0.9 | 6.1 | 0.00 | 0.06 | 0.06 | 28 | 1017.9 |
| 20260507050915 | 49 | 226 | 0.0 | 3.5 | 0.00 | 0.06 | 0.06 | 28 | 1017.9 |
| 20260507050003 | 48 | 232 | 0.0 | 2.6 | 0.00 | 0.06 | 0.06 | 31 | 1017.9 |
| 20260507045403 | 48 | 0 | 0.0 | 0.0 | 0.00 | 0.06 | 0.06 | 32 | 1017.9 |
| 20260507044503 | 48 | 0 | 0.0 | 0.0 | 0.00 | 0.06 | 0.06 | 33 | 1017.9 |
| 20260507043636 | 48 | 236 | 0.0 | 2.6 | 0.00 | 0.06 | 0.06 | 33 | 1017.9 |
| 20260507042703 | 49 | 0 | 0.0 | 0.0 | 0.00 | 0.06 | 0.06 | 33 | 1017.9 |
| 20260507041815 | 51 | 246 | 0.0 | 2.6 | 0.00 | 0.06 | 0.06 | 28 | 1017.9 |
| 20260507040915 | 51 | 272 | 0.0 | 3.5 | 0.00 | 0.06 | 0.06 | 26 | 1017.9 |
| 20260507040003 | 51 | 0 | 0.0 | 0.0 | 0.00 | 0.06 | 0.06 | 26 | 1017.9 |
| 20260507035415 | 51 | 0 | 0.0 | 0.0 | 0.00 | 0.06 | 0.06 | 26 | 1017.9 |
| 20260507034515 | 51 | 0 | 0.0 | 0.0 | 0.00 | 0.06 | 0.06 | 27 | 1017.9 |
| 20260507033615 | 52 | 0 | 0.0 | 0.0 | 0.00 | 0.06 | 0.06 | 26 | 1017.9 |
| 20260507032715 | 51 | 0 | 0.0 | 0.0 | 0.00 | 0.06 | 0.06 | 26 | 1017.9 |
| 20260507031815 | 51 | 0 | 0.0 | 0.0 | 0.00 | 0.06 | 0.06 | 26 | 1017.9 |
| 20260507030915 | 52 | 0 | 0.0 | 0.0 | 0.00 | 0.06 | 0.06 | 26 | 1017.9 |
| 20260507030015 | 52 | 0 | 0.0 | 0.0 | 0.00 | 0.06 | 0.06 | 26 | 1017.9 |
| 20260507025403 | 52 | 0 | 0.0 | 0.0 | 0.00 | 0.06 | 0.06 | 26 | 1017.9 |
| 20260507024503 | 52 | 0 | 0.0 | 0.0 | 0.00 | 0.06 | 0.06 | 26 | 1017.9 |
| 20260507023615 | 53 | 0 | 0.0 | 0.0 | 0.00 | 0.06 | 0.06 | 25 | 1017.9 |
| 20260507022715 | 53 | 0 | 0.0 | 0.0 | 0.00 | 0.06 | 0.06 | 25 | 1017.9 |
| 20260507021803 | 54 | 0 | 0.0 | 0.0 | 0.00 | 0.06 | 0.06 | 25 | 1017.9 |
| 20260507020903 | 54 | 0 | 0.0 | 0.0 | 0.00 | 0.06 | 0.06 | 24 | 1017.9 |
| 20260507020003 | 55 | 0 | 0.0 | 0.0 | 0.00 | 0.06 | 0.06 | 23 | 1017.9 |
| 20260507015415 | 55 | 0 | 0.0 | 0.0 | 0.00 | 0.06 | 0.06 | 23 | 1017.9 |
| 20260507014503 | 56 | 15 | 0.0 | 1.7 | 0.00 | 0.06 | 0.06 | 22 | 1017.9 |
| 20260507013624 | 56 | 323 | 0.9 | 4.3 | 0.00 | 0.06 | 0.06 | 22 | 1017.9 |
| 20260507012715 | 57 | 301 | 0.9 | 3.5 | 0.00 | 0.06 | 0.06 | 21 | 1017.9 |
| 20260507011815 | 58 | 349 | 0.0 | 3.5 | 0.00 | 0.06 | 0.06 | 20 | 1017.9 |
| 20260507010924 | 58 | 349 | 0.0 | 3.5 | 0.00 | 0.06 | 0.06 | 20 | 1017.9 |
| 20260507010015 | 59 | 350 | 0.0 | 2.6 | 0.00 | 0.06 | 0.06 | 20 | 1017.9 |
| 20260507005415 | 59 | 350 | 0.0 | 2.6 | 0.00 | 0.06 | 0.06 | 20 | 1017.9 |
| 20260507004515 | 60 | 339 | 0.9 | 7.0 | 0.00 | 0.06 | 0.06 | 18 | 1017.9 |
| 20260507003615 | 60 | 332 | 0.9 | 5.2 | 0.00 | 0.06 | 0.06 | 18 | 1017.9 |
| 20260507002736 | 61 | 315 | 0.0 | 2.6 | 0.00 | 0.06 | 0.06 | 18 | 1017.9 |
| 20260507001824 | 61 | 333 | 0.9 | 5.2 | 0.00 | 0.06 | 0.06 | 18 | 1017.9 |
| 20260507000903 | 60 | 283 | 0.0 | 5.2 | 0.00 | 0.06 | 0.06 | 18 | 1017.9 |
| 20260507000015 | 61 | 290 | 0.0 | 2.6 | 0.00 | 0.06 | 0.06 | 18 | 1017.9 |
| 20260506235403 | 60 | 311 | 0.9 | 5.2 | 0.00 | 0.06 | 0.06 | 18 | 1017.9 |
| 20260506234503 | 60 | 248 | 1.7 | 9.6 | 0.00 | 0.06 | 0.06 | 18 | 1017.9 |
| 20260506233636 | 61 | 12 | 1.7 | 13.0 | 0.00 | 0.06 | 0.06 | 19 | 1017.9 |
| 20260506232736 | 61 | 3 | 0.9 | 7.0 | 0.00 | 0.06 | 0.06 | 19 | 1017.9 |
| 20260506231803 | 60 | 239 | 0.0 | 2.6 | 0.00 | 0.06 | 0.06 | 19 | 1017.9 |
| 20260506230915 | 61 | 312 | 0.9 | 6.1 | 0.00 | 0.06 | 0.06 | 18 | 1017.9 |
| 20260506230003 | 60 | 19 | 0.0 | 2.6 | 0.00 | 0.06 | 0.06 | 21 | 1017.9 |
| 20260506225425 | 60 | 20 | 0.0 | 2.6 | 0.00 | 0.06 | 0.06 | 19 | 1017.9 |
| 20260506224515 | 60 | 330 | 1.7 | 19.1 | 0.00 | 0.06 | 0.06 | 20 | 1017.9 |
| 20260506223615 | 61 | 15 | 0.9 | 5.2 | 0.00 | 0.06 | 0.06 | 20 | 1017.9 |
| 20260506222703 | 61 | 353 | 0.9 | 6.1 | 0.00 | 0.06 | 0.06 | 21 | 1017.9 |
| 20260506221815 | 60 | 306 | 1.7 | 7.8 | 0.00 | 0.06 | 0.06 | 21 | 1017.9 |
| 20260506220936 | 60 | 332 | 0.9 | 7.8 | 0.00 | 0.06 | 0.06 | 22 | 1017.9 |
| 20260506220015 | 60 | 27 | 0.9 | 7.8 | 0.00 | 0.06 | 0.06 | 21 | 1017.9 |
| 20260506215415 | 60 | 10 | 1.7 | 9.6 | 0.00 | 0.06 | 0.06 | 22 | 1017.9 |
| 20260506214515 | 60 | 1 | 1.7 | 7.0 | 0.00 | 0.06 | 0.06 | 24 | 1017.9 |
| 20260506213603 | 59 | 273 | 0.9 | 6.1 | 0.00 | 0.06 | 0.06 | 24 | 1017.9 |
| 20260506212715 | 60 | 332 | 2.6 | 7.8 | 0.00 | 0.06 | 0.06 | 22 | 1017.9 |
| 20260506211815 | 59 | 17 | 0.9 | 7.0 | 0.00 | 0.06 | 0.06 | 24 | 1017.9 |
| 20260506210915 | 58 | 46 | 1.7 | 6.1 | 0.00 | 0.06 | 0.06 | 24 | 1017.9 |
| 20260506210003 | 59 | 12 | 2.6 | 8.7 | 0.00 | 0.06 | 0.06 | 24 | 1017.9 |
| 20260506205415 | 58 | 11 | 1.7 | 8.7 | 0.00 | 0.06 | 0.06 | 25 | 1017.9 |
| 20260506204515 | 58 | 9 | 1.7 | 8.7 | 0.00 | 0.06 | 0.06 | 23 | 1017.9 |
| 20260506203615 | 57 | 14 | 0.9 | 7.0 | 0.00 | 0.06 | 0.06 | 25 | 1017.9 |
| 20260506202736 | 57 | 359 | 1.7 | 9.6 | 0.00 | 0.06 | 0.06 | 25 | 1017.9 |
| 20260506201803 | 57 | 21 | 0.9 | 6.1 | 0.00 | 0.06 | 0.06 | 22 | 1017.9 |
| 20260506200903 | 58 | 34 | 1.7 | 6.1 | 0.00 | 0.06 | 0.06 | 24 | 1017.9 |
| 20260506200015 | 58 | 22 | 0.9 | 5.2 | 0.00 | 0.06 | 0.06 | 26 | 1017.9 |
| 20260506195415 | 57 | 35 | 0.9 | 7.8 | 0.00 | 0.06 | 0.06 | 24 | 1017.9 |
| 20260506194536 | 58 | 31 | 1.7 | 10.4 | 0.00 | 0.06 | 0.06 | 24 | 1017.9 |
| 20260506193603 | 58 | 18 | 3.5 | 11.3 | 0.00 | 0.06 | 0.06 | 24 | 1017.9 |
| 20260506192715 | 57 | 45 | 5.2 | 13.0 | 0.00 | 0.06 | 0.06 | 25 | 1017.9 |
| 20260506191815 | 58 | 15 | 3.5 | 11.3 | 0.00 | 0.06 | 0.06 | 25 | 1017.9 |
| 20260506190924 | 58 | 7 | 5.2 | 11.3 | 0.00 | 0.06 | 0.06 | 22 | 1017.9 |
| 20260506190015 | 57 | 11 | 3.5 | 13.0 | 0.00 | 0.06 | 0.06 | 24 | 1017.9 |
| 20260506185415 | 58 | 343 | 0.9 | 7.8 | 0.00 | 0.06 | 0.06 | 25 | 1017.9 |
| 20260506184515 | 57 | 357 | 1.7 | 11.3 | 0.00 | 0.06 | 0.06 | 24 | 1017.9 |
| 20260506183615 | 56 | 11 | 2.6 | 10.4 | 0.00 | 0.06 | 0.06 | 23 | 1017.9 |